Location: Pcim
(49.7500°N, 19.9670°E)
Time: 20:26:21
(UTC+02:00)

MOZHAYETS 4 - Pass Details

Date: 27 April 2024
Orbit: 652 x 670 km, 98.3° (Epoch: 20 May)

Event Time Altitude Azimuth Distance (km) Brightness Sun altitude
Rises 03:57:39 0° 170° (S) 3,006 10.8 -12.7°
Reaches altitude 10° 03:59:53 10° 172° (S) 2,097 10.0 -12.4°
Maximum altitude 04:04:28 71° 257° (WSW) 714 7.7 -11.8°
Drops below altitude 10° 04:09:04 10° 342° (NNW) 2,112 10.5 -11.2°
Sets 04:11:19 0° 344° (NNW) 3,028 11.4 -10.9°
